#timestamp,LO_Frequency,Hit,StdDev 
1570698015.5,286046999.9,N
1570698035.4,286047000.4,N
1570698055.3,286047000.1,N
1570698075.1,286047002.3,N
1570698095.9,286047000.1,N
1570698115.7,286047001.0,N
1570698135.5,286046998.1,N
1570698155.4,286046999.4,N
1570698175.2,286046999.1,N
1570698195.0,286046999.4,N
1570698195.9,286046999.4,N
1570698215.8,286047000.8,N
1570698235.6,286046999.9,N
1570698255.5,286047000.2,N
1570698275.3,286047001.8,N
1570698295.1,286047002.7,N
1570698315.9,286047000.1,N
1570698335.7,286047002.8,N
1570698355.5,286047000.5,N
1570698375.4,286047000.3,N
1570698395.2,286047001.2,N
1570698415.1,286047000.6,N
1570698416.0,286047000.6,N
1570698435.8,286046998.1,N
1570698455.6,286046998.3,N
1570698475.5,286046997.4,N
1570698495.3,286046997.2,N
1570698515.2,286046996.8,N
1570698535.9,286046998.9,N
1570698555.7,286046998.5,N
1570698575.6,286046999.3,N
1570698595.4,286046999.8,N
1570698615.2,286047001.9,N
1570698635.1,286047002.6,N
1570698636.0,286047002.6,N
1570698655.8,286046999.7,N
1570698675.7,286047000.0,N
1570698695.5,286046998.6,N
1570698715.3,286046998.4,N
1570698735.2,286046999.6,N
1570698755.0,286046998.9,N
1570698755.9,286046998.9,N
1570698775.8,286047000.7,N
1570698795.6,286046998.3,N
1570698815.4,286046998.5,N
1570698835.3,286047000.8,N
1570698855.1,286047000.8,N
1570698875.9,286047000.8,N
1570698895.7,286047001.0,N
1570698915.5,286047000.7,N
1570698935.4,286047000.9,N
1570698955.2,286047000.0,N
1570698975.0,286047001.0,N
1570698975.9,286047001.0,N
1570698995.8,286047002.5,N
1570699015.6,286047002.4,N
1570699035.5,286047000.1,N
1570699055.3,286047002.7,N
1570699075.1,286047001.7,N
1570699095.9,286046999.7,N
1570699115.7,286046999.7,N
1570699135.5,286047002.8,N
1570699155.4,286047002.3,N
1570699175.2,286046999.7,N
1570699195.1,286047003.9,N
1570699196.0,286047003.9,N
1570699215.8,286047001.9,N
1570699235.6,286047001.4,N
1570699255.5,286047002.6,N
1570699275.3,286047000.3,N
1570699295.2,286047000.1,N
1570699315.9,286046996.7,N
1570699335.7,286046997.1,N
1570699355.6,286046996.7,N
1570699375.4,286046998.7,N
1570699395.2,286046998.9,N
1570699415.1,286046998.9,N
1570699416.0,286046998.9,N
1570699435.8,286047001.0,N
1570699455.7,286047000.1,N
1570699475.5,286047000.1,N
1570699495.3,286047000.2,N
1570699515.2,286046999.7,N
1570699535.0,286047000.8,N
1570699535.9,286047000.8,N
1570699555.8,286047000.0,N
1570699575.6,286047001.0,N
1570699595.4,286046999.9,N
1570699615.3,286046998.3,N
1570699635.1,286046999.9,N
1570699655.8,286047001.4,N
1570699675.7,286047004.4,N
1570699695.5,286047002.7,N
1570699715.4,286047002.3,N
1570699735.2,286047002.3,N
1570699755.0,286047002.7,N
1570699755.9,286047002.7,N
1570699775.8,286047000.0,N
1570699795.6,286046999.7,N
1570699815.5,286047002.4,N
1570699835.3,286047002.3,N
1570699855.1,286047004.3,N
1570699875.9,286047003.8,N
1570699895.7,286047003.7,N
1570699915.5,286047003.8,N
1570699935.4,286047004.3,N
1570699955.2,286047001.9,N
1570699975.1,286047000.1,N
1570699976.0,286047000.1,N
1570699995.8,286047000.0,N
1570700015.6,286047001.0,N
1570700035.5,286047001.1,N
1570700055.3,286046998.2,N
1570700075.2,286047001.2,N
1570700095.9,286047000.6,N
1570700115.7,286046999.9,N
1570700135.6,286047002.8,N
1570700155.4,286047001.3,N
1570700175.3,286047001.8,N
1570700195.1,286047004.0,N
1570700196.0,286047004.0,N
1570700215.8,286047000.7,N
1570700235.7,286047000.9,N
1570700255.5,286047000.4,N
1570700275.4,286046999.8,N
1570700295.2,286047002.0,N
1570700315.0,286047002.4,N
1570700315.9,286047002.4,N
1570700335.8,286047002.4,N
1570700355.6,286047004.4,N
1570700375.5,286047003.9,N
1570700395.3,286047001.4,N
1570700415.1,286047000.4,N
1570700435.9,286046999.7,N
1570700455.7,286046999.7,N
1570700475.5,286047000.4,N
1570700495.4,286047000.6,N
1570700515.2,286047002.0,N
1570700535.1,286047001.6,N
1570700536.0,286047001.6,N
1570700555.8,286047003.5,N
1570700575.6,286047004.3,N
1570700595.5,286047003.5,N
1570700615.3,286047002.9,N
1570700635.2,286047003.0,N
1570700655.9,286047005.8,Y
1570700675.7,286047003.7,P
1570700695.6,286047001.4,N
1570700715.4,286047003.6,P
1570700735.3,286047006.0,Y
1570700755.1,286047002.5,P
1570700756.0,286047002.5,P
1570700775.8,286047002.2,P
1570700795.7,286047001.9,Y
1570700815.5,286046998.2,P
1570700835.4,286047000.4,N
1570700855.2,286046998.6,N
1570700875.0,286046998.7,N
1570700875.9,286046998.7,N
1570700895.8,286046999.4,N
1570700915.6,286047000.9,N
1570700935.5,286046998.3,N
1570700955.3,286046998.0,N
1570700975.1,286046995.2,Y
1570700995.9,286046997.5,P
1570701015.7,286046996.1,P
1570701035.6,286046996.1,N
1570701055.4,286046996.0,Y
1570701075.2,286046997.4,P
1570701095.1,286046997.8,P
1570701096.0,286046997.8,P
1570701115.8,286046997.8,Y
1570701135.7,286047001.2,P
1570701155.5,286047000.5,N
1570701175.3,286047001.9,N
1570701195.2,286047001.5,N
1570701215.0,286047001.3,N
1570701215.9,286047001.3,N
1570701235.7,286047004.3,Y
1570701255.6,286047001.8,P
1570701275.4,286047001.3,N
1570701295.3,286047001.9,P
1570701315.1,286047001.9,Y
1570701335.8,286046998.5,P
1570701355.7,286046998.8,N
1570701375.5,286046999.4,N
1570701395.4,286047000.9,N
1570701415.2,286046998.1,N
1570701435.0,286047001.2,N
1570701435.9,286047001.2,N
1570701455.8,286046999.2,N
1570701475.6,286046997.3,N
1570701495.5,286046997.2,N
1570701515.3,286046996.6,N
1570701535.1,286046994.9,Y
1570701555.9,286046999.1,P
1570701575.7,286046998.9,P
1570701595.6,286047001.1,P
